THY4PM LTFM-LTFG

Flight info

Callsign THY4PM
Flight time 0h 58m
Altitude 35000
Route RATVU1E/36 RATVU UT35 AYT T277 UTUSO
Aircraft A321/M-SDE3FGHIRWY/LB1

Departure

Time 2026-05-07 15:28
Airport İstanbul Airport (LTFM)

Arrival

Time 2026-05-07 16:26
Airport Gazipaşa-Alanya Airport (LTFG)
Time Latitude Longitude Altitude Speed Heading
2026-05-07 14:57 41.26065 28.74925 334 ft 0 kts 251°
2026-05-07 15:18 41.26071 28.74949 329 ft 4 kts 253°
2026-05-07 15:18 41.26078 28.74984 330 ft 4 kts 260°
2026-05-07 15:18 41.26080 28.75019 330 ft 4 kts 278°
2026-05-07 15:19 41.26071 28.75047 330 ft 3 kts 335°
2026-05-07 15:19 41.26068 28.75049 330 ft 0 kts 341°
2026-05-07 15:23 41.26070 28.75049 334 ft 1 kts 341°
2026-05-07 15:23 41.26078 28.75045 334 ft 2 kts 341°
2026-05-07 15:24 41.26093 28.75038 330 ft 3 kts 341°
2026-05-07 15:24 41.26115 28.75028 330 ft 4 kts 341°
2026-05-07 15:24 41.26151 28.75012 331 ft 7 kts 341°
2026-05-07 15:24 41.26187 28.74996 330 ft 5 kts 343°
2026-05-07 15:25 41.26223 28.75003 333 ft 6 kts 28°
2026-05-07 15:25 41.26241 28.75055 332 ft 7 kts 85°
2026-05-07 15:25 41.26244 28.75122 334 ft 8 kts 87°
2026-05-07 15:25 41.26246 28.75197 334 ft 9 kts 89°
2026-05-07 15:26 41.26247 28.75280 334 ft 9 kts 90°
2026-05-07 15:26 41.26247 28.75370 334 ft 10 kts 90°
2026-05-07 15:26 41.26248 28.75468 334 ft 11 kts 89°
2026-05-07 15:26 41.26249 28.75568 334 ft 11 kts 89°
2026-05-07 15:27 41.26270 28.75659 333 ft 10 kts 28°
2026-05-07 15:27 41.26307 28.75665 330 ft 0 kts 359°
2026-05-07 15:27 41.26393 28.75663 332 ft 42 kts 359°
2026-05-07 15:28 41.26910 28.75655 334 ft 107 kts 359°
2026-05-07 15:28 41.27853 28.75639 333 ft 158 kts 359°
2026-05-07 15:28 41.29033 28.75606 648 ft 174 kts 359°
2026-05-07 15:28 41.30207 28.75782 1293 ft 173 kts 28°
2026-05-07 15:29 41.31173 28.76766 1789 ft 180 kts 40°
2026-05-07 15:29 41.32198 28.77882 1964 ft 202 kts 35°
2026-05-07 15:29 41.33442 28.78936 2130 ft 223 kts 30°
2026-05-07 15:29 41.34858 28.80010 2260 ft 246 kts 28°
2026-05-07 15:30 41.36425 28.81167 2590 ft 265 kts 28°
2026-05-07 15:30 41.37871 28.82713 3197 ft 274 kts 54°
2026-05-07 15:30 41.38538 28.85091 3852 ft 280 kts 81°
2026-05-07 15:30 41.38697 28.87686 4565 ft 283 kts 88°
2026-05-07 15:31 41.38667 28.90332 5285 ft 286 kts 96°
2026-05-07 15:31 41.37994 28.92799 5915 ft 288 kts 129°
2026-05-07 15:31 41.36444 28.94409 6549 ft 286 kts 162°
2026-05-07 15:31 41.34495 28.94789 7164 ft 284 kts 182°
2026-05-07 15:32 41.32515 28.94821 7812 ft 286 kts 182°
2026-05-07 15:32 41.30513 28.94836 8457 ft 289 kts 182°
2026-05-07 15:32 41.28485 28.94850 9116 ft 293 kts 182°
2026-05-07 15:32 41.26442 28.94866 9768 ft 296 kts 182°
2026-05-07 15:33 41.24368 28.94849 10234 ft 306 kts 184°
2026-05-07 15:33 41.22154 28.94701 10371 ft 328 kts 186°
2026-05-07 15:33 41.19811 28.94469 10526 ft 346 kts 186°
2026-05-07 15:33 41.17413 28.94208 10986 ft 354 kts 186°
2026-05-07 15:34 41.14937 28.94291 11547 ft 360 kts 170°
2026-05-07 15:34 41.13284 28.94818 11935 ft 362 kts 166°
2026-05-07 15:34 41.10839 28.95675 12541 ft 365 kts 166°
2026-05-07 15:34 41.08368 28.96557 13122 ft 369 kts 166°
2026-05-07 15:35 41.05877 28.97450 13709 ft 373 kts 166°
2026-05-07 15:35 41.03365 28.98350 14255 ft 376 kts 166°
2026-05-07 15:35 41.00830 28.99259 14768 ft 379 kts 166°
2026-05-07 15:35 40.98308 29.00163 15282 ft 382 kts 166°
2026-05-07 15:36 40.95695 29.01097 15792 ft 386 kts 166°
2026-05-07 15:36 40.93087 29.02024 16313 ft 389 kts 166°
2026-05-07 15:36 40.90493 29.02945 16817 ft 393 kts 166°
2026-05-07 15:36 40.87812 29.03896 17340 ft 396 kts 166°
2026-05-07 15:37 40.85169 29.04830 17830 ft 400 kts 166°
2026-05-07 15:37 40.82473 29.05781 18326 ft 403 kts 166°
2026-05-07 15:37 40.79753 29.06745 18754 ft 407 kts 166°
2026-05-07 15:37 40.77003 29.07717 19162 ft 410 kts 166°
2026-05-07 15:38 40.74236 29.08693 19571 ft 414 kts 166°
2026-05-07 15:38 40.71440 29.09678 19973 ft 418 kts 166°
2026-05-07 15:38 40.68624 29.10670 20406 ft 421 kts 166°
2026-05-07 15:38 40.65778 29.11677 20819 ft 425 kts 166°
2026-05-07 15:39 40.62903 29.12690 21239 ft 429 kts 166°
2026-05-07 15:39 40.60011 29.13707 21652 ft 433 kts 166°
2026-05-07 15:39 40.57087 29.14734 22050 ft 436 kts 166°
2026-05-07 15:39 40.54144 29.15768 22448 ft 440 kts 166°
2026-05-07 15:40 40.51178 29.16812 22829 ft 443 kts 166°
2026-05-07 15:40 40.48186 29.17861 23200 ft 446 kts 166°
2026-05-07 15:40 40.45173 29.18913 23577 ft 449 kts 166°
2026-05-07 15:40 40.42141 29.19973 23908 ft 452 kts 166°
2026-05-07 15:41 40.39098 29.21039 24232 ft 455 kts 166°
2026-05-07 15:41 40.36032 29.22111 24565 ft 457 kts 166°
2026-05-07 15:41 40.32950 29.23186 24889 ft 459 kts 166°
2026-05-07 15:41 40.29854 29.24262 25220 ft 461 kts 166°
2026-05-07 15:42 40.26749 29.25340 25530 ft 463 kts 167°
2026-05-07 15:42 40.23621 29.26424 25812 ft 466 kts 167°
2026-05-07 15:42 40.20482 29.27512 26118 ft 468 kts 167°
2026-05-07 15:42 40.17324 29.28610 26438 ft 470 kts 167°
2026-05-07 15:43 40.14152 29.29714 26760 ft 472 kts 167°
2026-05-07 15:43 40.10965 29.30822 27058 ft 474 kts 167°
2026-05-07 15:43 40.07772 29.31929 27382 ft 476 kts 167°
2026-05-07 15:43 40.04556 29.33040 27705 ft 479 kts 167°
2026-05-07 15:44 40.01331 29.34153 28009 ft 480 kts 167°
2026-05-07 15:44 39.98101 29.35267 28302 ft 482 kts 167°
2026-05-07 15:44 39.94846 29.36391 28597 ft 484 kts 167°
2026-05-07 15:44 39.91597 29.37528 28877 ft 486 kts 165°
2026-05-07 15:45 39.88409 29.39067 29124 ft 489 kts 158°
2026-05-07 15:45 39.85275 29.40799 29382 ft 491 kts 158°
2026-05-07 15:45 39.82121 29.42537 29645 ft 493 kts 159°
2026-05-07 15:45 39.78952 29.44278 29907 ft 496 kts 159°
2026-05-07 15:46 39.72572 29.47777 30434 ft 499 kts 159°
2026-05-07 15:46 39.69381 29.49524 30797 ft 497 kts 159°
2026-05-07 15:46 39.66194 29.51266 31114 ft 497 kts 159°
2026-05-07 15:47 39.63012 29.52997 31456 ft 496 kts 159°
2026-05-07 15:47 39.59818 29.54669 31786 ft 495 kts 160°
2026-05-07 15:47 39.56605 29.56284 32072 ft 495 kts 161°
2026-05-07 15:47 39.53382 29.57862 32379 ft 494 kts 162°
2026-05-07 15:48 39.50162 29.59422 32688 ft 494 kts 162°
2026-05-07 15:48 39.46947 29.60983 32985 ft 494 kts 162°
2026-05-07 15:48 39.43737 29.62557 33281 ft 493 kts 161°
2026-05-07 15:48 39.40570 29.64126 33575 ft 493 kts 161°
2026-05-07 15:49 39.37373 29.65720 33873 ft 493 kts 161°
2026-05-07 15:49 39.34182 29.67318 34183 ft 492 kts 161°
2026-05-07 15:49 39.30950 29.68939 34449 ft 491 kts 161°
2026-05-07 15:49 39.27806 29.70507 34702 ft 490 kts 161°
2026-05-07 15:50 39.24623 29.72089 34961 ft 490 kts 162°
2026-05-07 15:50 39.21401 29.73683 35110 ft 490 kts 162°
2026-05-07 15:50 39.18257 29.75233 35152 ft 489 kts 162°
2026-05-07 15:51 39.11866 29.78379 35159 ft 488 kts 162°
2026-05-07 15:51 39.05559 29.81478 35155 ft 488 kts 162°
2026-05-07 15:52 38.99211 29.84597 35156 ft 490 kts 162°
2026-05-07 15:52 38.92831 29.87731 35169 ft 491 kts 161°
2026-05-07 15:53 38.86447 29.90846 35172 ft 491 kts 162°
2026-05-07 15:53 38.80036 29.93901 35177 ft 491 kts 162°
2026-05-07 15:54 38.73620 29.96922 35187 ft 491 kts 162°
2026-05-07 15:54 38.67207 29.99956 35193 ft 491 kts 162°
2026-05-07 15:55 38.60796 30.02995 35187 ft 491 kts 162°
2026-05-07 15:55 38.54381 30.06028 35192 ft 491 kts 162°
2026-05-07 15:56 38.47964 30.09058 35191 ft 491 kts 162°
2026-05-07 15:56 38.41554 30.12076 35206 ft 491 kts 162°
2026-05-07 15:57 38.35172 30.15066 35188 ft 492 kts 162°
2026-05-07 15:57 38.28738 30.18059 35179 ft 492 kts 163°
2026-05-07 15:58 38.22310 30.20992 35196 ft 493 kts 163°
2026-05-07 15:58 38.15894 30.23925 35201 ft 493 kts 163°
2026-05-07 15:59 38.09434 30.26883 35204 ft 493 kts 162°
2026-05-07 15:59 38.03178 30.29749 35204 ft 493 kts 162°
2026-05-07 15:59 37.99767 30.31308 34814 ft 498 kts 162°
2026-05-07 16:00 37.96534 30.32781 34862 ft 486 kts 163°
2026-05-07 16:00 37.93343 30.34230 35072 ft 486 kts 163°
2026-05-07 16:00 37.90163 30.35668 35194 ft 489 kts 163°
2026-05-07 16:01 37.83716 30.38577 35202 ft 492 kts 163°
2026-05-07 16:01 37.77250 30.41500 35200 ft 493 kts 163°
2026-05-07 16:02 37.70791 30.44417 35197 ft 493 kts 163°
2026-05-07 16:02 37.67584 30.45861 34948 ft 488 kts 163°
2026-05-07 16:02 37.64398 30.47294 34701 ft 484 kts 163°
2026-05-07 16:02 37.61226 30.48716 34455 ft 482 kts 163°
2026-05-07 16:03 37.58066 30.50130 34193 ft 481 kts 163°
2026-05-07 16:03 37.54924 30.51536 33904 ft 477 kts 163°
2026-05-07 16:03 37.51844 30.52912 33396 ft 474 kts 163°
2026-05-07 16:03 37.48707 30.54315 32864 ft 472 kts 163°
2026-05-07 16:04 37.45613 30.55702 32329 ft 470 kts 163°
2026-05-07 16:04 37.42577 30.57062 31814 ft 469 kts 162°
2026-05-07 16:04 37.39512 30.58430 31283 ft 467 kts 162°
2026-05-07 16:04 37.36450 30.59794 30765 ft 466 kts 162°
2026-05-07 16:05 37.33397 30.61150 30240 ft 464 kts 162°
2026-05-07 16:05 37.30322 30.62516 29678 ft 462 kts 162°
2026-05-07 16:05 37.27306 30.63859 29165 ft 459 kts 162°
2026-05-07 16:05 37.24300 30.65195 28677 ft 455 kts 162°
2026-05-07 16:06 37.21366 30.66501 28186 ft 452 kts 162°
2026-05-07 16:06 37.18414 30.67816 27722 ft 449 kts 162°
2026-05-07 16:06 37.15479 30.69118 27253 ft 446 kts 162°
2026-05-07 16:06 37.12565 30.70405 26795 ft 443 kts 162°
2026-05-07 16:07 37.09669 30.71684 26342 ft 440 kts 162°
2026-05-07 16:07 37.06789 30.72956 25889 ft 438 kts 162°
2026-05-07 16:07 37.03921 30.74220 25420 ft 437 kts 162°
2026-05-07 16:07 37.01066 30.75481 24967 ft 435 kts 162°
2026-05-07 16:08 36.98204 30.76746 24496 ft 435 kts 161°
2026-05-07 16:08 36.95387 30.78103 24018 ft 435 kts 154°
2026-05-07 16:08 36.92821 30.80070 23639 ft 430 kts 141°
2026-05-07 16:08 36.90658 30.82602 23056 ft 425 kts 128°
2026-05-07 16:09 36.88968 30.85570 22633 ft 414 kts 120°
2026-05-07 16:09 36.87446 30.88590 22194 ft 407 kts 120°
2026-05-07 16:09 36.85937 30.91560 21768 ft 400 kts 120°
2026-05-07 16:09 36.84456 30.94465 21319 ft 394 kts 121°
2026-05-07 16:10 36.82996 30.97319 20901 ft 387 kts 120°
2026-05-07 16:10 36.81553 31.00137 20465 ft 381 kts 121°
2026-05-07 16:10 36.80135 31.02904 20061 ft 375 kts 121°
2026-05-07 16:10 36.78740 31.05623 19652 ft 370 kts 121°
2026-05-07 16:11 36.77362 31.08316 19250 ft 365 kts 121°
2026-05-07 16:11 36.76010 31.10964 18854 ft 360 kts 121°
2026-05-07 16:11 36.74671 31.13581 18450 ft 356 kts 121°
2026-05-07 16:11 36.73347 31.16168 18027 ft 351 kts 121°
2026-05-07 16:12 36.72040 31.18714 17625 ft 345 kts 121°
2026-05-07 16:12 36.70775 31.21181 17257 ft 339 kts 121°
2026-05-07 16:12 36.69513 31.23639 16880 ft 334 kts 121°
2026-05-07 16:12 36.68256 31.26086 16506 ft 330 kts 120°
2026-05-07 16:13 36.67021 31.28486 16138 ft 328 kts 120°
2026-05-07 16:13 36.65790 31.30878 15765 ft 327 kts 120°
2026-05-07 16:13 36.64580 31.33230 15406 ft 325 kts 120°
2026-05-07 16:13 36.63362 31.35596 15032 ft 324 kts 120°
2026-05-07 16:14 36.62145 31.37954 14674 ft 324 kts 120°
2026-05-07 16:14 36.60929 31.40304 14314 ft 323 kts 120°
2026-05-07 16:14 36.59715 31.42652 13946 ft 322 kts 120°
2026-05-07 16:14 36.58509 31.44983 13554 ft 320 kts 120°
2026-05-07 16:15 36.57304 31.47311 13189 ft 318 kts 120°
2026-05-07 16:15 36.56110 31.49618 12836 ft 315 kts 120°
2026-05-07 16:15 36.54928 31.51904 12475 ft 313 kts 121°
2026-05-07 16:15 36.53754 31.54168 12118 ft 311 kts 121°
2026-05-07 16:16 36.52576 31.56435 11629 ft 313 kts 121°
2026-05-07 16:16 36.51399 31.58702 11262 ft 311 kts 121°
2026-05-07 16:16 36.50236 31.60938 11023 ft 305 kts 121°
2026-05-07 16:16 36.49474 31.62400 10742 ft 305 kts 121°
2026-05-07 16:17 36.48329 31.64596 10494 ft 300 kts 121°
2026-05-07 16:17 36.47203 31.66759 10134 ft 298 kts 121°
2026-05-07 16:17 36.46084 31.68917 9672 ft 295 kts 121°
2026-05-07 16:17 36.44983 31.71038 9247 ft 288 kts 121°
2026-05-07 16:18 36.43910 31.73095 8901 ft 279 kts 121°
2026-05-07 16:18 36.42868 31.75084 8582 ft 272 kts 121°
2026-05-07 16:18 36.41840 31.77045 8255 ft 270 kts 121°
2026-05-07 16:18 36.40820 31.78998 7941 ft 269 kts 120°
2026-05-07 16:19 36.39802 31.80945 7618 ft 268 kts 121°
2026-05-07 16:19 36.38785 31.82882 7295 ft 268 kts 121°
2026-05-07 16:19 36.37769 31.84811 6969 ft 265 kts 121°
2026-05-07 16:19 36.36770 31.86710 6669 ft 261 kts 121°
2026-05-07 16:20 36.35788 31.88576 6348 ft 256 kts 121°
2026-05-07 16:20 36.34821 31.90415 6016 ft 252 kts 121°
2026-05-07 16:20 36.33873 31.92222 5681 ft 248 kts 121°
2026-05-07 16:20 36.32934 31.94012 5366 ft 248 kts 122°
2026-05-07 16:21 36.31993 31.95797 5040 ft 247 kts 122°
2026-05-07 16:21 36.31056 31.97573 4718 ft 246 kts 122°
2026-05-07 16:21 36.30122 31.99345 4507 ft 245 kts 122°
2026-05-07 16:21 36.29205 32.01086 4240 ft 237 kts 123°
2026-05-07 16:22 36.28315 32.02783 3957 ft 234 kts 122°
2026-05-07 16:22 36.27566 32.04554 3677 ft 232 kts 108°
2026-05-07 16:22 36.27249 32.06395 3423 ft 230 kts 91°
2026-05-07 16:22 36.27330 32.08379 3149 ft 224 kts 81°
2026-05-07 16:23 36.27546 32.10219 2878 ft 208 kts 79°
2026-05-07 16:23 36.27758 32.11934 2606 ft 195 kts 79°
2026-05-07 16:23 36.27954 32.13549 2378 ft 184 kts 79°
2026-05-07 16:23 36.28140 32.15087 2153 ft 177 kts 79°
2026-05-07 16:24 36.28319 32.16577 1954 ft 173 kts 79°
2026-05-07 16:24 36.28495 32.18046 1725 ft 172 kts 79°
2026-05-07 16:24 36.28670 32.19507 1488 ft 171 kts 80°
2026-05-07 16:24 36.28846 32.20971 1267 ft 170 kts 80°
2026-05-07 16:25 36.29020 32.22420 1063 ft 170 kts 80°
2026-05-07 16:25 36.29190 32.23884 864 ft 171 kts 82°
2026-05-07 16:25 36.29338 32.25346 645 ft 171 kts 82°
2026-05-07 16:25 36.29535 32.26805 432 ft 172 kts 81°
2026-05-07 16:26 36.29713 32.28257 178 ft 167 kts 82°
2026-05-07 16:26 36.29867 32.29608 119 ft 139 kts 82°
2026-05-07 16:26 36.29971 32.30433 128 ft 53 kts 81°
2026-05-07 16:26 36.30011 32.30755 126 ft 33 kts 81°
2026-05-07 16:27 36.30031 32.30911 123 ft 10 kts 77°
2026-05-07 16:27 36.30058 32.30979 129 ft 6 kts 60°
2026-05-07 16:27 36.30060 32.31019 128 ft 2 kts 155°
2026-05-07 16:27 36.30042 32.31002 129 ft 5 kts 242°
2026-05-07 16:28 36.30032 32.30941 127 ft 10 kts 263°
2026-05-07 16:28 36.30020 32.30837 128 ft 15 kts 262°
2026-05-07 16:28 36.30004 32.30696 125 ft 18 kts 262°
2026-05-07 16:28 36.29984 32.30532 128 ft 17 kts 261°
2026-05-07 16:29 36.29970 32.30393 127 ft 14 kts 263°
2026-05-07 16:29 36.29945 32.30323 127 ft 5 kts 176°
2026-05-07 16:29 36.29924 32.30373 124 ft 9 kts 109°
2026-05-07 16:29 36.29886 32.30427 124 ft 8 kts 163°
2026-05-07 16:30 36.29853 32.30390 126 ft 7 kts 249°
2026-05-07 16:30 36.29827 32.30341 126 ft 5 kts 205°
2026-05-07 16:30 36.29808 32.30338 125 ft 2 kts 185°
2026-05-07 16:30 36.29800 32.30339 125 ft 1 kts 174°
2026-05-07 16:31 36.29798 32.30339 122 ft 0 kts 174°